Temp_Advection
nan nan nan nan nan nan nan nan nan nan nan nan nan nan nan nan nan nan nan nan nan nan nan nan nan nan nan nan nan nan nan nan nan nan nan nan nan nan nan nan nan nan nan nan nan
nan -0 -0 -0 -0 -0 -0 -0 0 0 0 0 0 0 -0 -0 0 -0 -1 -0 -0 -0 -0 -1 -1 -0 -1 -0 -0 -0 -0 0 0 -1 -0 -0 -0 -0 -1 -1 -0 -1 -1 -0 nan
nan -0 -0 -0 -0 -0 -0 -0 -0 0 0 0 0 -0 -0 -0 -0 -1 -0 0 0 -0 -0 -1 -1 -0 -1 -0 0 -0 -0 -0 -0 -0 -0 -0 -0 -0 -0 -1 -0 -1 -0 -0 nan
nan -0 -0 -0 -0 -0 -0 -0 -0 0 0 0 0 -0 -0 -0 -0 -0 0 0 -0 -0 -0 -1 -1 -1 -1 0 -0 -0 0 -0 -0 -0 -0 -1 -1 -0 -0 -1 -1 -0 -0 -0 nan
nan -0 -0 -0 -0 -0 -0 -0 -0 -0 -0 -0 -0 -0 -0 -1 -1 -0 0 -0 -0 -0 -1 -2 -1 -0 -0 0 0 -0 -0 -0 -0 -0 -0 -1 -1 -0 -0 -0 -0 -0 -0 -0 nan
nan -0 -0 -0 -0 -0 -0 -0 -0 -0 -0 -0 -0 -0 -0 -1 0 -0 0 -0 -0 -1 -1 -1 -0 0 -0 0 -0 -0 -0 -0 -0 -1 0 -1 -1 -0 -0 -0 -0 -0 -1 -0 nan
nan -0 -0 -0 -0 -0 -0 -0 -0 -0 -0 -0 -0 0 -1 -1 -0 -0 -0 -0 -0 -1 -1 -0 -0 -0 -0 0 -0 0 -0 -2 1 -2 0 -1 -1 -0 0 -0 -0 -0 -0 -1 nan
nan -0 -0 -0 -0 -0 -0 -0 -0 -0 -0 -0 -0 -0 -1 -0 0 -0 -0 -1 -1 -0 -0 -0 -0 -1 -0 -0 0 -3 -2 -1 -5 -0 -1 -0 -0 -2 -2 0 -0 -0 -0 -1 nan
nan -0 -0 -0 -0 -0 -0 -0 -0 -0 -0 -0 -0 -0 -1 -0 -0 -0 -0 -0 -0 -0 -0 -0 -0 -1 -0 0 1 0 -1 -2 -1 1 -3 -0 0 -2 -3 -1 -0 -0 0 -2 nan
nan -0 -0 -0 -0 -0 -0 -0 -0 -0 0 -0 -0 -0 -2 -1 -0 -0 -0 -0 -0 -0 -0 -0 -1 -1 1 -1 0 -1 0 -0 -3 -1 -2 -4 -3 -4 -7 -1 -1 0 -1 -1 nan
nan -0 -0 -0 -0 -0 -0 -0 0 -0 -1 -2 -1 -1 -0 -0 -0 -0 -0 -0 -0 -0 -0 -0 0 1 -2 -1 -2 -0 -1 -3 -0 -1 0 1 -2 -5 -2 -0 -0 0 -0 -4 nan
nan -0 -0 -0 -0 -0 -0 -0 0 0 0 -1 -1 -1 -0 -0 -0 -0 -0 -0 -0 -0 -1 0 -0 -0 1 -2 -1 -2 -1 0 -0 -0 0 -3 -1 1 -0 0 0 -0 0 -1 nan
nan -1 -0 -0 -0 -0 -0 -0 -0 -0 -1 -1 -1 -1 0 0 -0 -0 -0 -1 -0 -0 -0 -0 -0 1 0 -0 -0 0 -0 -0 -0 0 -0 -0 -1 1 -0 -1 0 0 0 -0 nan
nan -1 -1 -0 -0 -0 -0 -0 -0 -0 -1 -1 -1 -0 -0 -0 -1 -0 -0 -1 -0 -0 -1 2 -2 -3 -0 -0 0 0 0 -0 -0 0 0 -0 0 -0 -0 -1 -2 0 0 -0 nan
nan -1 -0 -1 -1 -0 -0 -0 -0 -0 -1 1 -0 -0 -0 -1 -0 -0 -0 -0 -0 -1 -0 0 -1 -4 -1 -1 0 -0 -0 0 0 0 1 -1 -0 1 0 -2 -9 -1 0 -0 nan
nan -1 -0 -0 -1 -0 -0 -0 -0 -0 -1 1 0 -0 -0 -0 -0 -0 0 0 -0 -0 0 0 -0 -0 -0 -0 -0 0 0 -0 0 1 -0 -0 -2 -1 -2 -4 -11 1 0 0 nan
nan -0 -0 -0 -0 -0 -0 -0 -0 -1 0 -1 -0 -0 0 -0 -1 -0 0 0 0 0 -0 -1 0 -1 -0 0 0 1 1 1 -1 -0 -0 -2 -0 0 0 -1 -3 -0 -0 -0 nan
nan -0 -0 0 0 -0 -0 -0 -1 -2 -1 0 -0 0 0 -1 -0 0 0 -0 -1 -0 0 0 -1 -1 -0 0 0 0 1 1 -0 -1 -2 -1 -0 0 0 -0 -1 -0 -0 -0 nan
nan -0 0 -0 -0 -0 -1 -0 -1 -2 -0 0 0 0 -0 -0 -0 0 0 -1 -0 -0 -0 -1 -1 -1 0 -0 0 0 -1 0 -3 -2 0 -1 -1 -1 -0 0 -0 -0 -0 -0 nan
nan -0 -1 -0 -0 -1 -1 -2 -3 -0 -0 -0 -0 -0 -0 -0 -0 0 -0 -1 -1 -1 -0 1 -0 -0 -0 0 1 -0 0 0 -0 1 1 -0 -0 0 -1 0 0 -0 -0 -0 nan
nan -1 0 -0 -1 -1 -1 -2 -1 -0 0 0 -0 -1 -0 -0 -0 0 -0 -0 -0 -0 0 0 0 -0 1 0 -0 -0 -0 -0 -0 1 1 -0 -0 1 0 -1 -0 -0 -0 -0 nan
nan -0 -0 -0 -1 -1 -1 -1 -1 -0 0 -0 -0 -0 -1 -0 0 -0 -0 -1 -0 0 0 0 0 0 0 -0 -0 0 -0 0 0 -0 0 -0 -1 -2 -3 -3 -0 -0 -1 -0 nan
nan -2 -0 -0 -1 -1 -1 -1 -0 0 -0 -0 -0 -1 -0 0 -0 -0 -0 -0 0 0 0 0 1 0 -0 0 0 0 -0 -0 -0 3 -1 -0 -0 -1 -8 -5 0 -0 -1 -1 nan
nan -1 0 -1 -2 -1 -1 -0 0 0 -0 -0 -0 -0 0 -0 -0 0 -0 0 0 1 -0 -0 0 0 -0 0 0 -0 -0 -0 0 3 -1 -0 -2 -1 -5 -0 -0 -0 -1 -1 nan
nan -0 -1 -1 -0 -1 -0 -0 -0 -0 -0 0 -0 -0 -0 -0 -0 -0 -0 0 0 0 -0 0 1 -0 0 -0 -1 0 0 0 -0 0 1 -0 -0 -5 -3 1 -1 -1 -0 -1 nan
nan -2 -0 -2 -1 -0 -0 -0 -1 -1 -0 0 -0 -0 0 -1 -0 -0 0 1 0 -0 -0 0 0 -0 0 -0 0 -0 0 -0 -0 0 0 1 -1 -0 -1 -0 -1 -1 -0 -1 nan
nan nan nan nan nan nan nan nan nan nan nan nan nan nan nan nan nan nan nan nan nan nan nan nan nan nan nan nan nan nan nan nan nan nan nan nan nan nan nan nan nan nan nan nan nan
Wind_Speed
11 12 13 13 13 14 14 14 14 15 15 14 11 7 5 4 7 8 9 8 10 7 7 3 10 11 13 13 4 9 3 10 15 14 9 18 13 11 16 12 4 15 24 26 25
13 13 13 14 14 14 14 14 14 14 15 14 11 6 4 3 8 11 12 13 11 10 7 8 11 10 15 3 2 2 7 14 14 15 10 12 8 10 13 15 14 23 23 24 24
14 14 14 15 15 15 15 14 14 14 14 13 10 5 3 5 6 16 17 15 14 11 8 10 8 10 17 10 2 12 7 16 17 13 17 15 15 13 15 12 17 20 23 23 22
14 15 15 16 16 16 15 14 13 13 13 12 8 5 5 5 2 9 14 15 13 11 10 12 15 19 17 5 3 12 6 15 11 18 12 15 15 15 13 18 16 18 21 21 19
15 15 16 16 16 16 15 14 13 11 12 11 7 4 4 7 10 5 15 14 13 11 9 16 17 12 15 7 8 14 6 12 9 14 17 18 16 13 13 16 18 18 18 17 17
16 16 17 17 17 16 15 14 12 10 10 9 6 5 4 12 2 12 15 15 12 11 12 12 14 1 19 8 7 6 11 11 10 20 19 14 13 6 10 16 18 17 18 18 17
17 17 18 18 18 17 15 14 11 8 8 7 6 7 8 12 2 12 15 15 12 11 15 7 8 12 5 6 10 7 8 12 9 20 12 22 9 4 4 13 13 14 12 13 11
18 18 18 19 19 17 15 13 10 7 6 6 5 6 9 9 7 14 15 15 13 10 10 4 9 14 18 5 9 20 12 11 25 8 10 5 3 21 19 14 14 14 14 16 22
18 19 19 20 20 18 14 11 8 7 5 4 3 5 17 12 12 16 18 17 13 12 11 10 11 21 14 12 13 9 15 16 9 29 14 10 4 27 22 16 15 15 20 26 20
19 19 19 19 19 18 12 7 6 6 5 5 8 7 17 14 14 18 18 17 16 14 12 12 17 17 17 5 1 13 9 10 20 11 12 15 18 21 32 18 16 13 18 24 21
20 20 19 18 18 17 9 7 5 4 13 15 16 16 8 13 15 18 20 18 17 17 15 19 15 18 18 19 26 15 21 23 8 11 3 8 24 23 19 16 15 9 12 29 23
21 20 20 17 16 12 7 4 7 8 12 25 21 22 6 12 12 17 22 20 19 18 19 18 18 5 18 20 16 23 19 4 11 8 3 18 26 15 12 13 14 16 10 12 16
21 21 20 16 13 4 5 12 9 8 9 17 27 18 17 11 17 21 26 26 18 19 20 22 25 9 10 9 10 12 9 11 6 8 5 8 16 6 3 11 7 10 9 11 9
22 21 20 16 7 6 7 5 5 6 5 13 26 22 21 18 18 20 27 28 20 21 23 21 14 25 10 9 10 1 3 11 9 5 8 8 3 6 2 8 13 6 6 9 8
22 22 18 18 12 5 3 3 6 4 6 15 19 9 21 25 12 20 25 26 23 23 17 21 14 30 13 11 12 2 7 10 12 9 11 13 4 26 3 13 29 12 11 9 10
22 23 19 14 9 9 8 4 4 6 10 9 10 12 20 23 25 20 19 24 26 22 18 23 11 15 13 12 15 14 8 13 13 10 5 6 14 12 11 20 37 12 11 8 11
22 23 18 11 4 3 6 6 6 9 9 11 17 15 19 19 21 21 17 17 19 16 19 20 18 18 17 17 13 17 10 11 6 4 2 17 14 12 14 13 14 14 14 13 11
22 19 13 10 9 9 6 8 9 12 18 3 12 15 20 19 22 16 17 18 20 21 14 16 17 19 10 13 14 15 13 7 4 7 15 21 6 10 14 15 17 16 14 15 12
21 9 8 4 11 8 12 10 9 16 7 2 5 15 16 18 16 16 18 18 20 21 19 16 17 17 21 15 18 14 14 19 16 24 14 12 20 16 7 10 11 15 14 15 14
19 5 11 6 8 9 9 17 18 16 6 7 12 10 15 19 20 19 17 19 20 22 22 21 14 16 18 19 19 22 14 14 9 14 11 5 3 3 4 6 10 10 9 13 16
11 6 10 7 10 12 11 17 18 10 8 7 14 15 13 14 21 17 17 16 18 18 20 20 17 13 17 15 17 17 16 13 14 12 11 3 2 10 15 11 12 15 17 18 19
7 4 8 11 11 15 12 19 19 12 9 9 14 15 15 14 16 18 19 13 13 21 18 17 13 14 15 16 16 19 17 18 11 17 4 5 5 21 19 20 20 19 21 21 19
7 16 6 12 8 12 18 20 17 7 11 14 12 14 14 14 12 17 16 13 14 13 13 14 17 12 12 18 16 17 19 19 15 17 6 4 3 8 35 22 19 22 22 26 23
7 4 8 13 20 18 16 14 15 17 17 19 14 14 13 13 15 8 16 9 5 10 6 15 18 18 15 19 19 24 15 13 18 12 8 5 11 10 21 16 21 25 27 24 23
6 2 9 6 12 16 16 9 13 16 17 18 13 12 13 13 14 12 15 11 11 9 5 13 18 21 6 20 19 17 14 20 21 12 8 4 6 19 16 14 23 27 26 27 24
8 14 16 20 17 9 7 10 15 12 14 15 15 15 19 19 18 9 13 13 14 13 14 17 16 16 17 18 20 13 5 19 11 11 8 10 15 13 15 13 19 23 24 24 24
11 13 12 15 14 13 8 3 13 13 8 15 12 12 18 13 12 14 28 39 9 16 16 18 16 15 16 18 15 18 13 14 10 12 10 12 9 8 12 8 9 23 25 25 25
Wind_Direction
347 342 339 337 335 335 336 339 340 341 344 344 340 332 299 244 208 211 214 232 228 232 221 277 254 269 256 263 330 9 160 49 68 87 82 53 78 102 111 110 62 154 145 147 151
343 339 336 333 330 329 330 334 335 336 340 343 339 333 295 235 216 233 219 225 227 218 216 252 245 226 250 205 221 205 52 89 82 89 91 74 105 139 137 117 103 109 125 146 154
343 339 334 329 327 325 324 326 331 332 336 338 335 325 281 222 238 232 221 227 210 208 219 294 291 262 247 208 258 81 85 83 68 83 79 72 44 19 123 128 138 137 145 155 159
343 341 337 330 325 323 321 321 325 328 331 333 329 315 270 245 301 154 204 193 197 203 248 268 243 245 251 114 181 100 49 98 111 81 91 84 66 60 64 99 125 146 153 157 165
344 342 338 333 328 323 319 315 318 323 325 327 316 295 273 257 259 209 182 189 192 209 253 257 251 240 265 128 226 120 100 109 125 111 99 84 67 81 94 112 131 138 150 163 175
343 340 337 334 330 325 318 311 311 315 317 318 299 277 273 252 104 166 179 187 186 223 252 257 289 114 280 149 350 111 136 119 131 80 96 89 41 21 116 134 134 155 165 171 171
339 337 336 333 330 328 318 308 305 306 307 308 288 279 264 248 196 182 186 194 207 222 256 251 287 263 287 154 160 149 100 9 157 107 95 83 14 317 137 148 161 178 172 132 84
335 334 333 332 329 327 317 306 301 292 292 292 276 283 249 207 201 189 189 200 216 232 269 301 262 269 271 249 209 87 48 30 301 13 63 280 314 293 269 166 194 182 174 121 86
331 330 331 330 327 326 315 303 293 282 265 262 270 281 253 210 203 194 194 201 212 227 245 272 264 259 213 228 221 182 168 177 252 266 178 186 204 255 246 188 191 195 180 134 116
329 328 329 329 327 324 313 296 276 252 244 232 247 260 241 216 191 191 197 208 211 222 232 240 240 242 241 349 219 33 359 236 199 238 182 134 154 219 230 210 180 217 164 156 168
329 327 328 329 326 323 309 287 282 224 213 215 175 219 130 194 183 194 196 207 222 225 225 219 237 243 84 78 277 151 207 250 136 108 359 297 173 182 176 201 204 201 185 167 179
329 327 325 327 324 317 288 240 354 323 299 233 246 224 232 165 183 208 195 203 217 219 222 232 230 193 257 171 193 187 226 5 38 43 279 48 322 147 161 199 222 177 224 164 182
328 327 323 327 322 322 276 283 305 317 273 256 219 225 200 226 218 204 199 204 218 227 223 233 234 156 237 224 237 243 67 277 217 188 77 61 233 143 340 332 223 222 186 164 203
326 325 324 326 317 281 273 245 284 311 276 229 200 215 215 214 235 213 202 208 225 220 238 243 90 298 203 246 262 249 9 287 282 238 240 135 279 286 301 307 300 215 180 168 194
326 322 322 318 297 264 314 304 289 262 276 151 177 193 200 204 214 218 201 215 225 235 234 243 202 200 239 242 231 161 210 280 285 252 239 169 109 261 328 17 294 210 167 188 146
323 316 315 312 280 242 280 278 275 234 250 158 136 204 200 200 229 191 208 208 229 243 247 258 326 260 244 248 266 276 293 280 253 276 2 155 196 171 170 185 223 161 156 156 128
319 311 303 270 202 246 247 240 220 241 132 162 171 188 202 195 214 218 196 203 220 226 237 252 219 250 225 243 236 243 259 256 8 5 260 275 266 130 92 112 138 144 143 133 131
321 310 293 255 226 269 221 225 244 230 248 120 182 188 204 197 217 201 184 217 215 229 231 232 239 237 243 248 256 218 251 234 131 267 223 237 263 98 100 107 119 134 144 139 153
328 317 317 295 221 196 221 225 227 259 298 167 202 187 204 209 204 199 206 216 217 224 239 234 226 247 223 217 249 245 226 251 199 227 260 102 84 48 60 98 115 142 158 158 155
329 277 244 200 186 188 230 244 251 322 330 342 282 221 202 210 203 200 207 218 225 209 236 253 272 209 201 213 222 248 264 293 230 267 273 113 55 160 287 180 149 135 169 151 153
324 257 161 177 180 212 230 239 244 249 281 265 275 278 241 214 208 224 214 215 220 230 206 245 264 255 189 197 216 223 242 257 287 293 295 50 191 199 207 210 177 157 159 160 149
291 270 169 166 201 224 238 246 271 279 180 256 277 285 297 262 218 215 240 225 199 225 193 226 252 250 196 199 230 224 225 232 243 243 232 119 79 355 331 228 161 164 157 151 144
296 277 176 191 230 229 221 248 261 282 260 254 243 258 278 288 283 213 226 225 203 204 233 207 241 261 210 193 208 237 226 252 275 279 40 5 121 58 289 238 166 156 155 144 153
297 281 157 211 250 286 283 220 242 225 253 260 259 265 276 259 274 216 225 136 165 226 300 215 239 242 210 208 202 219 233 256 266 267 154 193 164 238 255 164 154 150 156 156 160
246 314 314 227 218 239 264 288 288 241 198 230 260 270 267 252 245 246 221 173 173 158 216 218 235 251 291 295 304 212 206 226 246 266 320 175 53 169 251 149 149 158 165 160 167
306 344 332 300 268 282 293 272 273 263 263 201 231 239 230 255 250 266 244 216 179 186 216 216 233 255 249 188 239 275 183 301 218 246 263 291 127 104 95 126 152 159 166 159 171
355 320 309 294 282 273 249 281 327 259 318 290 257 296 263 224 24 357 330 327 281 205 201 220 225 234 235 246 197 224 244 249 265 266 266 265 112 113 127 120 161 165 167 167 178
Height
1525 1523 1521 1519 1517 1514 1512 1510 1507 1504 1502 1499 1496 1494 1492 1492 1491 1492 1492 1493 1493 1493 1493 1492 1493 1490 1486 1480 1478 1476 1485 1484 1482 1486 1488 1486 1491 1492 1495 1499 1501 1502 1510 1517 1522
1525 1523 1520 1518 1516 1514 1511 1509 1507 1504 1501 1498 1496 1494 1492 1492 1491 1490 1492 1492 1492 1493 1493 1493 1489 1486 1481 1476 1476 1475 1479 1482 1478 1482 1488 1490 1491 1490 1493 1499 1505 1508 1515 1520 1523
1524 1522 1519 1517 1514 1512 1510 1508 1506 1503 1501 1498 1496 1494 1493 1492 1492 1486 1488 1490 1491 1492 1493 1492 1489 1484 1478 1473 1474 1475 1482 1480 1485 1486 1489 1490 1491 1490 1489 1498 1505 1511 1516 1521 1524
1523 1520 1518 1515 1513 1510 1508 1506 1504 1502 1500 1498 1495 1494 1492 1492 1487 1484 1487 1489 1491 1492 1493 1492 1487 1482 1474 1472 1475 1481 1480 1484 1485 1489 1490 1493 1496 1497 1496 1500 1507 1513 1518 1522 1526
1522 1519 1517 1514 1511 1509 1506 1504 1503 1501 1499 1497 1495 1494 1493 1493 1488 1484 1487 1489 1491 1492 1492 1487 1482 1478 1475 1474 1474 1477 1482 1484 1486 1488 1491 1496 1501 1503 1504 1507 1510 1516 1521 1524 1525
1521 1518 1515 1512 1510 1507 1505 1503 1501 1500 1498 1497 1495 1494 1493 1492 1486 1485 1487 1489 1491 1492 1490 1485 1481 1477 1474 1473 1476 1477 1481 1485 1487 1494 1497 1502 1507 1504 1509 1512 1514 1516 1517 1520 1523
1520 1517 1514 1511 1508 1505 1503 1500 1500 1499 1497 1496 1495 1493 1493 1489 1487 1487 1488 1489 1491 1491 1487 1485 1482 1479 1472 1473 1478 1479 1485 1489 1487 1498 1512 1506 1515 1510 1508 1511 1516 1514 1515 1521 1521
1518 1515 1512 1509 1506 1503 1500 1499 1498 1497 1496 1496 1495 1494 1490 1486 1487 1488 1489 1491 1491 1491 1489 1486 1485 1480 1475 1477 1477 1488 1506 1532 1498 1514 1519 1513 1535 1513 1509 1509 1513 1511 1514 1520 1521
1517 1514 1511 1508 1504 1501 1498 1497 1496 1496 1495 1495 1495 1495 1488 1483 1486 1486 1488 1489 1490 1490 1489 1487 1484 1478 1472 1473 1478 1475 1510 1522 1515 1491 1513 1506 1533 1513 1508 1507 1508 1507 1499 1513 1523
1516 1512 1509 1506 1502 1499 1496 1495 1494 1494 1495 1494 1494 1498 1482 1481 1482 1484 1487 1488 1489 1488 1488 1486 1482 1475 1467 1479 1499 1499 1505 1496 1500 1486 1483 1497 1525 1501 1504 1502 1503 1504 1506 1509 1509
1514 1510 1507 1504 1501 1498 1495 1494 1495 1493 1493 1484 1480 1479 1474 1477 1481 1482 1485 1487 1486 1486 1484 1481 1480 1478 1481 1488 1496 1489 1493 1489 1468 1471 1480 1480 1496 1488 1492 1495 1496 1500 1500 1504 1507
1512 1508 1505 1503 1499 1497 1494 1494 1491 1492 1486 1480 1480 1478 1476 1476 1480 1481 1484 1486 1484 1483 1479 1477 1479 1469 1471 1480 1476 1478 1476 1476 1476 1473 1478 1493 1499 1480 1481 1487 1489 1493 1498 1503 1505
1510 1506 1503 1501 1497 1495 1494 1493 1492 1491 1485 1473 1473 1473 1475 1477 1476 1477 1480 1481 1479 1479 1474 1475 1466 1463 1468 1471 1475 1470 1479 1485 1481 1478 1480 1492 1498 1479 1480 1487 1490 1491 1495 1499 1504
1508 1504 1501 1498 1498 1495 1493 1493 1493 1492 1485 1462 1461 1468 1472 1476 1473 1471 1475 1479 1476 1476 1471 1467 1468 1490 1469 1471 1465 1478 1474 1477 1475 1480 1500 1487 1514 1500 1493 1493 1494 1494 1495 1498 1502
1506 1502 1500 1497 1496 1494 1494 1493 1492 1492 1500 1441 1456 1461 1465 1469 1466 1467 1470 1474 1473 1468 1467 1467 1468 1474 1474 1466 1464 1473 1469 1471 1469 1476 1476 1491 1531 1513 1518 1535 1514 1496 1496 1498 1500
1503 1499 1497 1495 1493 1492 1492 1493 1493 1493 1489 1450 1452 1456 1461 1463 1465 1462 1466 1472 1472 1468 1464 1460 1461 1459 1464 1460 1461 1460 1467 1471 1467 1472 1505 1498 1500 1489 1508 1518 1514 1495 1495 1496 1499
1499 1496 1493 1492 1492 1493 1494 1494 1492 1489 1438 1447 1451 1454 1456 1461 1461 1457 1464 1468 1474 1483 1479 1465 1464 1458 1457 1463 1460 1463 1476 1498 1513 1523 1528 1482 1484 1475 1468 1475 1482 1489 1491 1496 1503
1495 1491 1488 1487 1489 1491 1494 1491 1493 1452 1447 1431 1439 1447 1458 1453 1457 1455 1460 1469 1464 1465 1472 1480 1483 1460 1455 1462 1466 1465 1472 1496 1561 1531 1503 1479 1481 1480 1471 1476 1479 1487 1493 1498 1504
1491 1488 1485 1485 1486 1490 1492 1488 1471 1449 1435 1436 1440 1448 1455 1449 1452 1452 1461 1463 1459 1462 1473 1468 1471 1451 1454 1458 1463 1466 1477 1458 1485 1474 1472 1477 1480 1479 1478 1482 1487 1489 1497 1501 1505
1488 1486 1485 1486 1486 1490 1487 1480 1454 1444 1444 1443 1450 1441 1452 1449 1452 1450 1453 1451 1453 1452 1455 1454 1468 1444 1447 1454 1458 1461 1455 1475 1465 1495 1496 1503 1505 1510 1498 1481 1483 1492 1499 1502 1507
1488 1485 1482 1484 1488 1488 1481 1468 1455 1448 1451 1455 1450 1443 1441 1441 1441 1448 1448 1444 1444 1445 1449 1452 1454 1451 1443 1457 1463 1465 1467 1462 1458 1460 1481 1500 1507 1487 1493 1484 1483 1490 1498 1503 1506
1490 1481 1480 1483 1486 1478 1472 1462 1453 1447 1450 1454 1450 1445 1441 1433 1437 1441 1446 1440 1438 1443 1449 1451 1451 1458 1454 1444 1445 1448 1455 1455 1472 1476 1464 1480 1501 1501 1498 1466 1472 1488 1494 1501 1508
1490 1479 1478 1481 1477 1465 1460 1456 1450 1452 1452 1451 1449 1445 1438 1437 1442 1432 1438 1435 1434 1441 1445 1449 1456 1471 1463 1452 1447 1452 1449 1446 1443 1442 1493 1493 1516 1505 1490 1478 1480 1486 1493 1500 1507
1492 1471 1472 1476 1473 1465 1452 1447 1450 1451 1453 1449 1447 1443 1441 1442 1432 1434 1436 1434 1440 1443 1447 1445 1448 1453 1465 1449 1441 1453 1449 1446 1448 1457 1497 1482 1511 1504 1480 1464 1474 1484 1490 1500 1507
1491 1475 1482 1464 1463 1460 1454 1450 1449 1447 1446 1449 1449 1447 1446 1448 1440 1436 1432 1431 1438 1444 1445 1444 1455 1445 1441 1447 1439 1436 1443 1446 1449 1444 1459 1458 1462 1479 1477 1454 1469 1481 1487 1495 1505
1490 1487 1480 1471 1466 1457 1455 1456 1453 1447 1442 1444 1446 1443 1444 1443 1435 1435 1431 1431 1438 1441 1443 1441 1452 1444 1448 1446 1446 1451 1439 1443 1438 1442 1445 1449 1461 1454 1459 1464 1470 1478 1485 1495 1504
1493 1492 1487 1474 1464 1457 1453 1454 1460 1445 1445 1442 1441 1440 1438 1436 1439 1440 1447 1448 1430 1436 1442 1442 1443 1448 1457 1437 1441 1459 1441 1438 1438 1438 1441 1453 1451 1450 1458 1463 1468 1475 1482 1491 1500